{"data":{"norad_id":62394,"epoch":"2026-09-19T19:16:55.373952Z","epoch_age_seconds":74491,"freshness":"FRESH","line1":"1 62394U 24247T   26262.80341868  .00041029  00000+0  59075-3 0  9993","line2":"2 62394  44.9694  83.5666 0010408 241.5864 118.3980 15.55353066 98049","mean_motion":15.55353066,"eccentricity":0.0010408,"inclination_deg":44.9694,"raan_deg":83.5666,"arg_perigee_deg":241.5864,"mean_anomaly_deg":118.398,"bstar":0.00059075,"rev_number":9804,"period_min":92.583480335005,"perigee_km":394.07064677804,"apogee_km":408.18236168846,"semimajor_km":6779.2635042332,"source":"CELESTRAK","updated_at":"2026-09-20T09:00:48.040162Z"}}